owner,sensor,date,latitude,longitude,vertical_datum,sea_water_practical_salinity,qcFlag 
TABS,ioos:station:wmo:42050:1,2014-03-01T00:00:00Z,28.8425,-94.2433,2.0,34.9008,11111222 
TABS,ioos:station:wmo:42050:1,2014-03-01T00:30:00Z,28.8425,-94.2433,2.0,34.8727,11111222 
TABS,ioos:station:wmo:42050:1,2014-03-01T01:00:00Z,28.8425,-94.2433,2.0,34.8488,11111222 
TABS,ioos:station:wmo:42050:1,2014-03-01T01:30:00Z,28.8425,-94.2433,2.0,34.8402,11111222 
TABS,ioos:station:wmo:42050:1,2014-03-01T02:00:00Z,28.8425,-94.2433,2.0,34.8337,11111222 
TABS,ioos:station:wmo:42050:1,2014-03-01T02:30:00Z,28.8425,-94.2433,2.0,34.8372,11111222 
TABS,ioos:station:wmo:42050:1,2014-03-01T03:00:00Z,28.8425,-94.2433,2.0,34.8382,11111222 
TABS,ioos:station:wmo:42050:1,2014-03-01T03:30:00Z,28.8425,-94.2433,2.0,34.8474,11111222 
TABS,ioos:station:wmo:42050:1,2014-03-01T04:00:00Z,28.8425,-94.2433,2.0,34.8634,11111222 
TABS,ioos:station:wmo:42050:1,2014-03-01T04:30:00Z,28.8425,-94.2433,2.0,34.8784,11111222 
TABS,ioos:station:wmo:42050:1,2014-03-01T05:00:00Z,28.8425,-94.2433,2.0,34.8985,11111222 
TABS,ioos:station:wmo:42050:1,2014-03-01T05:30:00Z,28.8425,-94.2433,2.0,34.9183,11111222 
TABS,ioos:station:wmo:42050:1,2014-03-01T06:00:00Z,28.8425,-94.2433,2.0,34.9408,11111222 
TABS,ioos:station:wmo:42050:1,2014-03-01T06:30:00Z,28.8425,-94.2433,2.0,34.9542,11111222 
TABS,ioos:station:wmo:42050:1,2014-03-01T07:00:00Z,28.8425,-94.2433,2.0,34.9692,11111222 
TABS,ioos:station:wmo:42050:1,2014-03-01T07:30:00Z,28.8425,-94.2433,2.0,34.9726,11111222 
TABS,ioos:station:wmo:42050:1,2014-03-01T08:00:00Z,28.8425,-94.2433,2.0,34.9654,11111222 
TABS,ioos:station:wmo:42050:1,2014-03-01T08:30:00Z,28.8425,-94.2433,2.0,34.9693,11111222 
TABS,ioos:station:wmo:42050:1,2014-03-01T09:00:00Z,28.8425,-94.2433,2.0,34.9541,11111222 
TABS,ioos:station:wmo:42050:1,2014-03-01T09:30:00Z,28.8425,-94.2433,2.0,34.9416,11111222 
TABS,ioos:station:wmo:42050:1,2014-03-01T10:00:00Z,28.8425,-94.2433,2.0,34.9286,11111222 
TABS,ioos:station:wmo:42050:1,2014-03-01T10:30:00Z,28.8425,-94.2433,2.0,34.9084,11111222 
TABS,ioos:station:wmo:42050:1,2014-03-01T11:00:00Z,28.8425,-94.2433,2.0,34.8871,11111222 
TABS,ioos:station:wmo:42050:1,2014-03-01T11:30:00Z,28.8425,-94.2433,2.0,34.8572,11111222 
TABS,ioos:station:wmo:42050:1,2014-03-01T12:00:00Z,28.8425,-94.2433,2.0,34.8264,11111222 
TABS,ioos:station:wmo:42050:1,2014-03-01T12:30:00Z,28.8425,-94.2433,2.0,34.8068,11111222 
TABS,ioos:station:wmo:42050:1,2014-03-01T13:00:00Z,28.8425,-94.2433,2.0,34.7956,11111222 
TABS,ioos:station:wmo:42050:1,2014-03-01T13:30:00Z,28.8425,-94.2433,2.0,34.7879,11111222 
TABS,ioos:station:wmo:42050:1,2014-03-01T14:00:00Z,28.8425,-94.2433,2.0,34.7899,11111222 
TABS,ioos:station:wmo:42050:1,2014-03-01T14:30:00Z,28.8425,-94.2433,2.0,34.7936,11111222 
TABS,ioos:station:wmo:42050:1,2014-03-01T15:00:00Z,28.8425,-94.2433,2.0,34.7915,11111222 
TABS,ioos:station:wmo:42050:1,2014-03-01T15:30:00Z,28.8425,-94.2433,2.0,34.7889,11111222 
TABS,ioos:station:wmo:42050:1,2014-03-01T16:00:00Z,28.8425,-94.2433,2.0,34.8088,11111222 
TABS,ioos:station:wmo:42050:1,2014-03-01T16:30:00Z,28.8425,-94.2433,2.0,34.9086,11111222 
TABS,ioos:station:wmo:42050:1,2014-03-01T17:00:00Z,28.8425,-94.2433,2.0,34.9329,11111222 
TABS,ioos:station:wmo:42050:1,2014-03-01T17:30:00Z,28.8425,-94.2433,2.0,34.9361,11111222 
TABS,ioos:station:wmo:42050:1,2014-03-01T18:00:00Z,28.8425,-94.2433,2.0,34.9857,11111222 
TABS,ioos:station:wmo:42050:1,2014-03-01T18:30:00Z,28.8425,-94.2433,2.0,35.0038,11111222 
TABS,ioos:station:wmo:42050:1,2014-03-01T19:00:00Z,28.8425,-94.2433,2.0,35.0065,11111222 
TABS,ioos:station:wmo:42050:1,2014-03-01T19:30:00Z,28.8425,-94.2433,2.0,35.0171,11111222 
TABS,ioos:station:wmo:42050:1,2014-03-01T20:00:00Z,28.8425,-94.2433,2.0,35.0026,11111222 
TABS,ioos:station:wmo:42050:1,2014-03-01T20:30:00Z,28.8425,-94.2433,2.0,35.0105,11111222 
TABS,ioos:station:wmo:42050:1,2014-03-01T21:00:00Z,28.8425,-94.2433,2.0,35.0137,11111222 
TABS,ioos:station:wmo:42050:1,2014-03-01T21:30:00Z,28.8425,-94.2433,2.0,34.9828,11111222 
TABS,ioos:station:wmo:42050:1,2014-03-01T22:00:00Z,28.8425,-94.2433,2.0,34.9584,11111222 
TABS,ioos:station:wmo:42050:1,2014-03-01T22:30:00Z,28.8425,-94.2433,2.0,34.9528,11111222 
TABS,ioos:station:wmo:42050:1,2014-03-01T23:00:00Z,28.8425,-94.2433,2.0,34.9404,11111222 
TABS,ioos:station:wmo:42050:1,2014-03-01T23:30:00Z,28.8425,-94.2433,2.0,34.9179,11111222 
TABS,ioos:station:wmo:42050:1,2014-03-02T00:00:00Z,28.8425,-94.2433,2.0,34.9159,11111222 
TABS,ioos:station:wmo:42050:1,2014-03-02T00:30:00Z,28.8425,-94.2433,2.0,34.8821,11111222 
TABS,ioos:station:wmo:42050:1,2014-03-02T01:00:00Z,28.8425,-94.2433,2.0,34.8843,11111222 
TABS,ioos:station:wmo:42050:1,2014-03-02T01:30:00Z,28.8425,-94.2433,2.0,34.8776,11111222 
TABS,ioos:station:wmo:42050:1,2014-03-02T02:00:00Z,28.8425,-94.2433,2.0,34.8701,11111222 
TABS,ioos:station:wmo:42050:1,2014-03-02T02:30:00Z,28.8425,-94.2433,2.0,34.8492,11111222 
TABS,ioos:station:wmo:42050:1,2014-03-02T03:00:00Z,28.8425,-94.2433,2.0,34.8463,11111222 
TABS,ioos:station:wmo:42050:1,2014-03-02T03:30:00Z,28.8425,-94.2433,2.0,34.8373,11111222 
TABS,ioos:station:wmo:42050:1,2014-03-02T04:00:00Z,28.8425,-94.2433,2.0,34.8283,11111222 
TABS,ioos:station:wmo:42050:1,2014-03-02T04:30:00Z,28.8425,-94.2433,2.0,34.8184,11111222 
TABS,ioos:station:wmo:42050:1,2014-03-02T05:00:00Z,28.8425,-94.2433,2.0,34.7826,11111222 
TABS,ioos:station:wmo:42050:1,2014-03-02T05:30:00Z,28.8425,-94.2433,2.0,34.7738,11111222 
TABS,ioos:station:wmo:42050:1,2014-03-02T06:00:00Z,28.8425,-94.2433,2.0,34.7833,11111222 
TABS,ioos:station:wmo:42050:1,2014-03-02T06:30:00Z,28.8425,-94.2433,2.0,34.7826,11111222 
TABS,ioos:station:wmo:42050:1,2014-03-02T07:00:00Z,28.8425,-94.2433,2.0,34.7688,11111222 
TABS,ioos:station:wmo:42050:1,2014-03-02T07:30:00Z,28.8425,-94.2433,2.0,34.7605,11111222 
TABS,ioos:station:wmo:42050:1,2014-03-02T08:00:00Z,28.8425,-94.2433,2.0,34.7637,11111222 
TABS,ioos:station:wmo:42050:1,2014-03-02T08:30:00Z,28.8425,-94.2433,2.0,34.7844,11111222 
TABS,ioos:station:wmo:42050:1,2014-03-02T09:00:00Z,28.8425,-94.2433,2.0,34.7971,11111222 
TABS,ioos:station:wmo:42050:1,2014-03-02T09:30:00Z,28.8425,-94.2433,2.0,34.8301,11111222 
TABS,ioos:station:wmo:42050:1,2014-03-02T10:00:00Z,28.8425,-94.2433,2.0,34.8423,11111222 
TABS,ioos:station:wmo:42050:1,2014-03-02T10:30:00Z,28.8425,-94.2433,2.0,34.8757,11111222 
TABS,ioos:station:wmo:42050:1,2014-03-02T11:00:00Z,28.8425,-94.2433,2.0,34.8422,11111222 
TABS,ioos:station:wmo:42050:1,2014-03-02T11:30:00Z,28.8425,-94.2433,2.0,34.7912,11111222 
TABS,ioos:station:wmo:42050:1,2014-03-02T12:00:00Z,28.8425,-94.2433,2.0,34.7703,11111222 
TABS,ioos:station:wmo:42050:1,2014-03-02T12:30:00Z,28.8425,-94.2433,2.0,34.7743,11111222 
TABS,ioos:station:wmo:42050:1,2014-03-02T13:00:00Z,28.8425,-94.2433,2.0,34.7572,11111222 
TABS,ioos:station:wmo:42050:1,2014-03-02T13:30:00Z,28.8425,-94.2433,2.0,34.7531,11111222 
TABS,ioos:station:wmo:42050:1,2014-03-02T14:00:00Z,28.8425,-94.2433,2.0,34.7523,11111222 
TABS,ioos:station:wmo:42050:1,2014-03-02T14:30:00Z,28.8425,-94.2433,2.0,34.7517,11111222 
TABS,ioos:station:wmo:42050:1,2014-03-02T15:00:00Z,28.8425,-94.2433,2.0,34.7537,11111222 
TABS,ioos:station:wmo:42050:1,2014-03-02T15:30:00Z,28.8425,-94.2433,2.0,34.7515,11111222 
TABS,ioos:station:wmo:42050:1,2014-03-02T16:00:00Z,28.8425,-94.2433,2.0,34.7507,11111222 
TABS,ioos:station:wmo:42050:1,2014-03-02T16:30:00Z,28.8425,-94.2433,2.0,34.7597,11111222 
TABS,ioos:station:wmo:42050:1,2014-03-02T17:00:00Z,28.8425,-94.2433,2.0,34.761,11111222 
TABS,ioos:station:wmo:42050:1,2014-03-02T17:30:00Z,28.8425,-94.2433,2.0,34.7544,11111222 
TABS,ioos:station:wmo:42050:1,2014-03-02T18:00:00Z,28.8425,-94.2433,2.0,34.7707,11111222 
TABS,ioos:station:wmo:42050:1,2014-03-02T18:30:00Z,28.8425,-94.2433,2.0,34.7688,11111222 
TABS,ioos:station:wmo:42050:1,2014-03-02T19:00:00Z,28.8425,-94.2433,2.0,34.8081,11111222 
TABS,ioos:station:wmo:42050:1,2014-03-02T19:30:00Z,28.8425,-94.2433,2.0,34.7794,11111222 
TABS,ioos:station:wmo:42050:1,2014-03-02T20:00:00Z,28.8425,-94.2433,2.0,34.8207,11111222 
TABS,ioos:station:wmo:42050:1,2014-03-02T20:30:00Z,28.8425,-94.2433,2.0,34.8566,11111222 
TABS,ioos:station:wmo:42050:1,2014-03-02T21:00:00Z,28.8425,-94.2433,2.0,34.8751,11111222 
TABS,ioos:station:wmo:42050:1,2014-03-02T21:30:00Z,28.8425,-94.2433,2.0,34.8244,11111222 
TABS,ioos:station:wmo:42050:1,2014-03-02T22:00:00Z,28.8425,-94.2433,2.0,34.8279,11111222 
TABS,ioos:station:wmo:42050:1,2014-03-02T22:30:00Z,28.8425,-94.2433,2.0,34.8312,11111222 
TABS,ioos:station:wmo:42050:1,2014-03-02T23:00:00Z,28.8425,-94.2433,2.0,34.8269,11111222 
TABS,ioos:station:wmo:42050:1,2014-03-02T23:30:00Z,28.8425,-94.2433,2.0,34.8128,11111222 
TABS,ioos:station:wmo:42050:1,2014-03-03T00:00:00Z,28.8425,-94.2433,2.0,34.8135,11111222 
TABS,ioos:station:wmo:42050:1,2014-03-03T00:30:00Z,28.8425,-94.2433,2.0,34.811,11111222 
TABS,ioos:station:wmo:42050:1,2014-03-03T01:00:00Z,28.8425,-94.2433,2.0,34.787,11111222 
TABS,ioos:station:wmo:42050:1,2014-03-03T01:30:00Z,28.8425,-94.2433,2.0,34.7947,11111222 
TABS,ioos:station:wmo:42050:1,2014-03-03T02:00:00Z,28.8425,-94.2433,2.0,34.7886,11111222 
TABS,ioos:station:wmo:42050:1,2014-03-03T02:30:00Z,28.8425,-94.2433,2.0,34.7842,11111222 
TABS,ioos:station:wmo:42050:1,2014-03-03T03:00:00Z,28.8425,-94.2433,2.0,34.7827,11111222 
TABS,ioos:station:wmo:42050:1,2014-03-03T03:30:00Z,28.8425,-94.2433,2.0,34.7786,11111222 
TABS,ioos:station:wmo:42050:1,2014-03-03T04:00:00Z,28.8425,-94.2433,2.0,34.7695,11111222 
TABS,ioos:station:wmo:42050:1,2014-03-03T04:30:00Z,28.8425,-94.2433,2.0,34.7661,11111222 
TABS,ioos:station:wmo:42050:1,2014-03-03T05:00:00Z,28.8425,-94.2433,2.0,34.7645,11111222 
TABS,ioos:station:wmo:42050:1,2014-03-03T05:30:00Z,28.8425,-94.2433,2.0,34.7615,11111222 
TABS,ioos:station:wmo:42050:1,2014-03-03T06:00:00Z,28.8425,-94.2433,2.0,34.764,11111222 
TABS,ioos:station:wmo:42050:1,2014-03-03T06:30:00Z,28.8425,-94.2433,2.0,34.771,11111222 
TABS,ioos:station:wmo:42050:1,2014-03-03T07:00:00Z,28.8425,-94.2433,2.0,34.7698,11111222 
TABS,ioos:station:wmo:42050:1,2014-03-03T07:30:00Z,28.8425,-94.2433,2.0,34.778,11111222 
TABS,ioos:station:wmo:42050:1,2014-03-03T08:00:00Z,28.8425,-94.2433,2.0,34.7834,11111222 
TABS,ioos:station:wmo:42050:1,2014-03-03T08:30:00Z,28.8425,-94.2433,2.0,34.7846,11111222 
TABS,ioos:station:wmo:42050:1,2014-03-03T09:00:00Z,28.8425,-94.2433,2.0,34.7873,11111222 
TABS,ioos:station:wmo:42050:1,2014-03-03T09:30:00Z,28.8425,-94.2433,2.0,34.8129,11111222 
TABS,ioos:station:wmo:42050:1,2014-03-03T10:00:00Z,28.8425,-94.2433,2.0,34.8555,11111222 
TABS,ioos:station:wmo:42050:1,2014-03-03T10:30:00Z,28.8425,-94.2433,2.0,34.8532,11111222 
TABS,ioos:station:wmo:42050:1,2014-03-03T11:00:00Z,28.8425,-94.2433,2.0,34.8524,11111222 
TABS,ioos:station:wmo:42050:1,2014-03-03T11:30:00Z,28.8425,-94.2433,2.0,34.825,11111222 
TABS,ioos:station:wmo:42050:1,2014-03-03T12:00:00Z,28.8425,-94.2433,2.0,34.8133,11111222 
TABS,ioos:station:wmo:42050:1,2014-03-03T12:30:00Z,28.8425,-94.2433,2.0,34.795,11111222 
TABS,ioos:station:wmo:42050:1,2014-03-03T13:00:00Z,28.8425,-94.2433,2.0,34.7798,11111222 
TABS,ioos:station:wmo:42050:1,2014-03-03T13:30:00Z,28.8425,-94.2433,2.0,34.7806,11111222 
TABS,ioos:station:wmo:42050:1,2014-03-03T14:00:00Z,28.8425,-94.2433,2.0,34.7731,11111222 
TABS,ioos:station:wmo:42050:1,2014-03-03T14:30:00Z,28.8425,-94.2433,2.0,34.7743,11111222 
TABS,ioos:station:wmo:42050:1,2014-03-03T15:00:00Z,28.8425,-94.2433,2.0,34.775,11111222 
TABS,ioos:station:wmo:42050:1,2014-03-03T15:30:00Z,28.8425,-94.2433,2.0,34.7749,11111222 
TABS,ioos:station:wmo:42050:1,2014-03-03T16:00:00Z,28.8425,-94.2433,2.0,34.7756,11111222 
TABS,ioos:station:wmo:42050:1,2014-03-03T16:30:00Z,28.8425,-94.2433,2.0,34.7883,11111222 
TABS,ioos:station:wmo:42050:1,2014-03-03T17:00:00Z,28.8425,-94.2433,2.0,34.8138,11111222 
TABS,ioos:station:wmo:42050:1,2014-03-03T17:30:00Z,28.8425,-94.2433,2.0,34.8148,11111222 
TABS,ioos:station:wmo:42050:1,2014-03-03T18:00:00Z,28.8425,-94.2433,2.0,34.7997,11111222 
TABS,ioos:station:wmo:42050:1,2014-03-03T18:30:00Z,28.8425,-94.2433,2.0,34.7905,11111222 
TABS,ioos:station:wmo:42050:1,2014-03-03T19:00:00Z,28.8425,-94.2433,2.0,34.787,11111222 
TABS,ioos:station:wmo:42050:1,2014-03-03T19:30:00Z,28.8425,-94.2433,2.0,34.7882,11111222 
TABS,ioos:station:wmo:42050:1,2014-03-03T20:00:00Z,28.8425,-94.2433,2.0,34.7882,11111222 
TABS,ioos:station:wmo:42050:1,2014-03-03T20:30:00Z,28.8425,-94.2433,2.0,34.7883,11111222 
TABS,ioos:station:wmo:42050:1,2014-03-03T21:00:00Z,28.8425,-94.2433,2.0,34.7827,11111222 
TABS,ioos:station:wmo:42050:1,2014-03-03T21:30:00Z,28.8425,-94.2433,2.0,34.7769,11111222 
TABS,ioos:station:wmo:42050:1,2014-03-03T22:00:00Z,28.8425,-94.2433,2.0,34.7756,11111222 
TABS,ioos:station:wmo:42050:1,2014-03-03T22:30:00Z,28.8425,-94.2433,2.0,34.7684,11111222 
TABS,ioos:station:wmo:42050:1,2014-03-03T23:00:00Z,28.8425,-94.2433,2.0,34.7623,11111222 
TABS,ioos:station:wmo:42050:1,2014-03-03T23:30:00Z,28.8425,-94.2433,2.0,34.7601,11111222 
TABS,ioos:station:wmo:42050:1,2014-03-04T00:00:00Z,28.8425,-94.2433,2.0,34.7425,11111222 
TABS,ioos:station:wmo:42050:1,2014-03-04T00:30:00Z,28.8425,-94.2433,2.0,34.7335,11111222 
TABS,ioos:station:wmo:42050:1,2014-03-04T01:00:00Z,28.8425,-94.2433,2.0,34.7128,11111222 
TABS,ioos:station:wmo:42050:1,2014-03-04T01:30:00Z,28.8425,-94.2433,2.0,34.7017,11111222 
TABS,ioos:station:wmo:42050:1,2014-03-04T02:00:00Z,28.8425,-94.2433,2.0,34.6897,11111222 
TABS,ioos:station:wmo:42050:1,2014-03-04T02:30:00Z,28.8425,-94.2433,2.0,34.6855,11111222 
TABS,ioos:station:wmo:42050:1,2014-03-04T03:00:00Z,28.8425,-94.2433,2.0,34.683,11111222 
TABS,ioos:station:wmo:42050:1,2014-03-04T03:30:00Z,28.8425,-94.2433,2.0,34.6822,11111222 
TABS,ioos:station:wmo:42050:1,2014-03-04T04:00:00Z,28.8425,-94.2433,2.0,34.6852,11111222 
TABS,ioos:station:wmo:42050:1,2014-03-04T04:30:00Z,28.8425,-94.2433,2.0,34.6946,11111222 
TABS,ioos:station:wmo:42050:1,2014-03-04T05:00:00Z,28.8425,-94.2433,2.0,34.7071,11111222 
TABS,ioos:station:wmo:42050:1,2014-03-04T05:30:00Z,28.8425,-94.2433,2.0,34.7147,11111222 
TABS,ioos:station:wmo:42050:1,2014-03-04T06:00:00Z,28.8425,-94.2433,2.0,34.7165,11111222 
TABS,ioos:station:wmo:42050:1,2014-03-04T06:30:00Z,28.8425,-94.2433,2.0,34.7267,11111222 
TABS,ioos:station:wmo:42050:1,2014-03-04T07:00:00Z,28.8425,-94.2433,2.0,34.7277,11111222 
TABS,ioos:station:wmo:42050:1,2014-03-04T07:30:00Z,28.8425,-94.2433,2.0,34.73,11111222 
TABS,ioos:station:wmo:42050:1,2014-03-04T08:00:00Z,28.8425,-94.2433,2.0,34.7252,11111222 
TABS,ioos:station:wmo:42050:1,2014-03-04T08:30:00Z,28.8425,-94.2433,2.0,34.7215,11111222 
TABS,ioos:station:wmo:42050:1,2014-03-04T09:00:00Z,28.8425,-94.2433,2.0,34.719,11111222 
TABS,ioos:station:wmo:42050:1,2014-03-04T09:30:00Z,28.8425,-94.2433,2.0,34.7239,11111222 
TABS,ioos:station:wmo:42050:1,2014-03-04T10:00:00Z,28.8425,-94.2433,2.0,34.728,11111222 
TABS,ioos:station:wmo:42050:1,2014-03-04T10:30:00Z,28.8425,-94.2433,2.0,34.7247,11111222 
TABS,ioos:station:wmo:42050:1,2014-03-04T11:00:00Z,28.8425,-94.2433,2.0,34.7144,11111222 
TABS,ioos:station:wmo:42050:1,2014-03-04T11:30:00Z,28.8425,-94.2433,2.0,34.6885,11111222 
TABS,ioos:station:wmo:42050:1,2014-03-04T12:00:00Z,28.8425,-94.2433,2.0,34.6955,11111222 
TABS,ioos:station:wmo:42050:1,2014-03-04T12:30:00Z,28.8425,-94.2433,2.0,34.6888,11111222 
TABS,ioos:station:wmo:42050:1,2014-03-04T13:00:00Z,28.8425,-94.2433,2.0,34.6863,11111222 
TABS,ioos:station:wmo:42050:1,2014-03-04T13:30:00Z,28.8425,-94.2433,2.0,34.7049,11111222 
TABS,ioos:station:wmo:42050:1,2014-03-04T14:00:00Z,28.8425,-94.2433,2.0,34.7241,11111222 
TABS,ioos:station:wmo:42050:1,2014-03-04T14:30:00Z,28.8425,-94.2433,2.0,34.7246,11111222 
TABS,ioos:station:wmo:42050:1,2014-03-04T15:00:00Z,28.8425,-94.2433,2.0,34.7412,11111222 
TABS,ioos:station:wmo:42050:1,2014-03-04T15:30:00Z,28.8425,-94.2433,2.0,34.7311,11111222 
TABS,ioos:station:wmo:42050:1,2014-03-04T16:00:00Z,28.8425,-94.2433,2.0,34.735,11111222 
TABS,ioos:station:wmo:42050:1,2014-03-04T16:30:00Z,28.8425,-94.2433,2.0,34.7254,11111222 
TABS,ioos:station:wmo:42050:1,2014-03-04T17:00:00Z,28.8425,-94.2433,2.0,34.7274,11111222 
TABS,ioos:station:wmo:42050:1,2014-03-04T17:30:00Z,28.8425,-94.2433,2.0,34.7135,11111222 
TABS,ioos:station:wmo:42050:1,2014-03-04T18:00:00Z,28.8425,-94.2433,2.0,34.7174,11111222 
TABS,ioos:station:wmo:42050:1,2014-03-04T18:30:00Z,28.8425,-94.2433,2.0,34.7263,11111222 
TABS,ioos:station:wmo:42050:1,2014-03-04T19:00:00Z,28.8425,-94.2433,2.0,34.7067,11111222 
TABS,ioos:station:wmo:42050:1,2014-03-04T19:30:00Z,28.8425,-94.2433,2.0,34.7188,11111222 
TABS,ioos:station:wmo:42050:1,2014-03-04T20:00:00Z,28.8425,-94.2433,2.0,34.7084,11111222 
TABS,ioos:station:wmo:42050:1,2014-03-04T20:30:00Z,28.8425,-94.2433,2.0,34.701,11111222 
TABS,ioos:station:wmo:42050:1,2014-03-04T21:00:00Z,28.8425,-94.2433,2.0,34.7072,11111222 
TABS,ioos:station:wmo:42050:1,2014-03-04T21:30:00Z,28.8425,-94.2433,2.0,34.7006,11111222 
TABS,ioos:station:wmo:42050:1,2014-03-04T22:00:00Z,28.8425,-94.2433,2.0,34.7088,11111222 
TABS,ioos:station:wmo:42050:1,2014-03-04T22:30:00Z,28.8425,-94.2433,2.0,34.7086,11111222 
TABS,ioos:station:wmo:42050:1,2014-03-04T23:00:00Z,28.8425,-94.2433,2.0,34.7033,11111222 
TABS,ioos:station:wmo:42050:1,2014-03-04T23:30:00Z,28.8425,-94.2433,2.0,34.6859,11111222 
TABS,ioos:station:wmo:42050:1,2014-03-05T00:00:00Z,28.8425,-94.2433,2.0,34.6698,11111222 
TABS,ioos:station:wmo:42050:1,2014-03-05T00:30:00Z,28.8425,-94.2433,2.0,34.6592,11111222 
TABS,ioos:station:wmo:42050:1,2014-03-05T01:00:00Z,28.8425,-94.2433,2.0,34.6465,11111222 
TABS,ioos:station:wmo:42050:1,2014-03-05T01:30:00Z,28.8425,-94.2433,2.0,34.6669,11111222 
TABS,ioos:station:wmo:42050:1,2014-03-05T02:00:00Z,28.8425,-94.2433,2.0,34.6492,11111222 
TABS,ioos:station:wmo:42050:1,2014-03-05T02:30:00Z,28.8425,-94.2433,2.0,34.6389,11111222 
TABS,ioos:station:wmo:42050:1,2014-03-05T03:00:00Z,28.8425,-94.2433,2.0,34.6134,11111222 
TABS,ioos:station:wmo:42050:1,2014-03-05T03:30:00Z,28.8425,-94.2433,2.0,34.606,11111222 
TABS,ioos:station:wmo:42050:1,2014-03-05T04:00:00Z,28.8425,-94.2433,2.0,34.5979,11111222 
TABS,ioos:station:wmo:42050:1,2014-03-05T04:30:00Z,28.8425,-94.2433,2.0,34.6047,11111222 
TABS,ioos:station:wmo:42050:1,2014-03-05T05:00:00Z,28.8425,-94.2433,2.0,34.6057,11111222 
TABS,ioos:station:wmo:42050:1,2014-03-05T05:30:00Z,28.8425,-94.2433,2.0,34.607,11111222 
TABS,ioos:station:wmo:42050:1,2014-03-05T06:00:00Z,28.8425,-94.2433,2.0,34.6031,11111222 
TABS,ioos:station:wmo:42050:1,2014-03-05T06:30:00Z,28.8425,-94.2433,2.0,34.5832,11111222 
TABS,ioos:station:wmo:42050:1,2014-03-05T07:00:00Z,28.8425,-94.2433,2.0,34.5866,11111222 
TABS,ioos:station:wmo:42050:1,2014-03-05T07:30:00Z,28.8425,-94.2433,2.0,34.6043,11111222 
TABS,ioos:station:wmo:42050:1,2014-03-05T08:00:00Z,28.8425,-94.2433,2.0,34.6453,11111222 
TABS,ioos:station:wmo:42050:1,2014-03-05T08:30:00Z,28.8425,-94.2433,2.0,34.6731,11111222 
TABS,ioos:station:wmo:42050:1,2014-03-05T09:00:00Z,28.8425,-94.2433,2.0,34.6848,11111222 
TABS,ioos:station:wmo:42050:1,2014-03-05T09:30:00Z,28.8425,-94.2433,2.0,34.6934,11111222 
TABS,ioos:station:wmo:42050:1,2014-03-05T10:00:00Z,28.8425,-94.2433,2.0,34.6948,11111222 
TABS,ioos:station:wmo:42050:1,2014-03-05T10:30:00Z,28.8425,-94.2433,2.0,34.6863,11111222 
TABS,ioos:station:wmo:42050:1,2014-03-05T11:00:00Z,28.8425,-94.2433,2.0,34.6738,11111222 
TABS,ioos:station:wmo:42050:1,2014-03-05T11:30:00Z,28.8425,-94.2433,2.0,34.6685,11111222 
TABS,ioos:station:wmo:42050:1,2014-03-05T12:00:00Z,28.8425,-94.2433,2.0,34.6274,11111222 
TABS,ioos:station:wmo:42050:1,2014-03-05T12:30:00Z,28.8425,-94.2433,2.0,34.6309,11111222 
TABS,ioos:station:wmo:42050:1,2014-03-05T13:00:00Z,28.8425,-94.2433,2.0,34.6253,11111222 
TABS,ioos:station:wmo:42050:1,2014-03-05T13:30:00Z,28.8425,-94.2433,2.0,34.6258,11111222 
TABS,ioos:station:wmo:42050:1,2014-03-05T14:00:00Z,28.8425,-94.2433,2.0,34.6174,11111222 
TABS,ioos:station:wmo:42050:1,2014-03-05T14:30:00Z,28.8425,-94.2433,2.0,34.6074,11111222 
TABS,ioos:station:wmo:42050:1,2014-03-05T15:00:00Z,28.8425,-94.2433,2.0,34.5893,11111222 
TABS,ioos:station:wmo:42050:1,2014-03-05T15:30:00Z,28.8425,-94.2433,2.0,34.5758,11111222 
TABS,ioos:station:wmo:42050:1,2014-03-05T16:00:00Z,28.8425,-94.2433,2.0,34.5696,11111222 
TABS,ioos:station:wmo:42050:1,2014-03-05T16:30:00Z,28.8425,-94.2433,2.0,34.5565,11111222 
TABS,ioos:station:wmo:42050:1,2014-03-05T17:00:00Z,28.8425,-94.2433,2.0,34.5412,11111222 
TABS,ioos:station:wmo:42050:1,2014-03-05T17:30:00Z,28.8425,-94.2433,2.0,34.5313,11111222 
TABS,ioos:station:wmo:42050:1,2014-03-05T18:00:00Z,28.8425,-94.2433,2.0,34.5244,11111222 
TABS,ioos:station:wmo:42050:1,2014-03-05T18:30:00Z,28.8425,-94.2433,2.0,34.5127,11111222 
TABS,ioos:station:wmo:42050:1,2014-03-05T19:00:00Z,28.8425,-94.2433,2.0,34.4975,11111222 
TABS,ioos:station:wmo:42050:1,2014-03-05T19:30:00Z,28.8425,-94.2433,2.0,34.4931,11111222 
TABS,ioos:station:wmo:42050:1,2014-03-05T20:00:00Z,28.8425,-94.2433,2.0,34.4935,11111222 
TABS,ioos:station:wmo:42050:1,2014-03-05T20:30:00Z,28.8425,-94.2433,2.0,34.4817,11111222 
TABS,ioos:station:wmo:42050:1,2014-03-05T21:00:00Z,28.8425,-94.2433,2.0,34.4782,11111222 
TABS,ioos:station:wmo:42050:1,2014-03-05T21:30:00Z,28.8425,-94.2433,2.0,34.4747,11111222 
TABS,ioos:station:wmo:42050:1,2014-03-05T22:00:00Z,28.8425,-94.2433,2.0,34.481,11111222 
TABS,ioos:station:wmo:42050:1,2014-03-05T22:30:00Z,28.8425,-94.2433,2.0,34.4798,11111222 
TABS,ioos:station:wmo:42050:1,2014-03-05T23:00:00Z,28.8425,-94.2433,2.0,34.4808,11111222 
TABS,ioos:station:wmo:42050:1,2014-03-05T23:30:00Z,28.8425,-94.2433,2.0,34.479,11111222 
TABS,ioos:station:wmo:42050:1,2014-03-06T00:00:00Z,28.8425,-94.2433,2.0,34.4743,11111222 
TABS,ioos:station:wmo:42050:1,2014-03-06T00:30:00Z,28.8425,-94.2433,2.0,34.4661,11111222 
TABS,ioos:station:wmo:42050:1,2014-03-06T01:00:00Z,28.8425,-94.2433,2.0,34.4528,11111222 
TABS,ioos:station:wmo:42050:1,2014-03-06T01:30:00Z,28.8425,-94.2433,2.0,34.4168,11111222 
TABS,ioos:station:wmo:42050:1,2014-03-06T02:00:00Z,28.8425,-94.2433,2.0,34.3986,11111222 
TABS,ioos:station:wmo:42050:1,2014-03-06T02:30:00Z,28.8425,-94.2433,2.0,34.3798,11111222 
TABS,ioos:station:wmo:42050:1,2014-03-06T03:00:00Z,28.8425,-94.2433,2.0,34.3743,11111222 
TABS,ioos:station:wmo:42050:1,2014-03-06T03:30:00Z,28.8425,-94.2433,2.0,34.3592,11111222 
TABS,ioos:station:wmo:42050:1,2014-03-06T04:00:00Z,28.8425,-94.2433,2.0,34.3475,11111222 
TABS,ioos:station:wmo:42050:1,2014-03-06T04:30:00Z,28.8425,-94.2433,2.0,34.3277,11111222 
TABS,ioos:station:wmo:42050:1,2014-03-06T05:00:00Z,28.8425,-94.2433,2.0,34.3106,11111222 
TABS,ioos:station:wmo:42050:1,2014-03-06T05:30:00Z,28.8425,-94.2433,2.0,34.3089,11111222 
TABS,ioos:station:wmo:42050:1,2014-03-06T06:00:00Z,28.8425,-94.2433,2.0,34.2991,11111222 
TABS,ioos:station:wmo:42050:1,2014-03-06T06:30:00Z,28.8425,-94.2433,2.0,34.2925,11111222 
TABS,ioos:station:wmo:42050:1,2014-03-06T07:00:00Z,28.8425,-94.2433,2.0,34.2831,11111222 
TABS,ioos:station:wmo:42050:1,2014-03-06T07:30:00Z,28.8425,-94.2433,2.0,34.2831,11111222 
TABS,ioos:station:wmo:42050:1,2014-03-06T08:00:00Z,28.8425,-94.2433,2.0,34.2757,11111222 
TABS,ioos:station:wmo:42050:1,2014-03-06T08:30:00Z,28.8425,-94.2433,2.0,34.2708,11111222 
TABS,ioos:station:wmo:42050:1,2014-03-06T09:00:00Z,28.8425,-94.2433,2.0,34.2667,11111222 
TABS,ioos:station:wmo:42050:1,2014-03-06T09:30:00Z,28.8425,-94.2433,2.0,34.2597,11111222 
TABS,ioos:station:wmo:42050:1,2014-03-06T10:00:00Z,28.8425,-94.2433,2.0,34.257,11111222 
TABS,ioos:station:wmo:42050:1,2014-03-06T10:30:00Z,28.8425,-94.2433,2.0,34.259,11111222 
TABS,ioos:station:wmo:42050:1,2014-03-06T11:00:00Z,28.8425,-94.2433,2.0,34.2644,11111222 
TABS,ioos:station:wmo:42050:1,2014-03-06T11:30:00Z,28.8425,-94.2433,2.0,34.2695,11111222 
TABS,ioos:station:wmo:42050:1,2014-03-06T12:00:00Z,28.8425,-94.2433,2.0,34.2778,11111222 